QPF
0.00 0.00 0.00 0.00 0.00 0.00 0.00 0.00 0.00 0.00 0.00 0.00 0.00 0.00 0.00 0.00 0.00 0.00 0.00 0.00 0.00 0.00 0.00 0.00 0.00 0.00 0.00 0.00 0.00 0.00 0.00 0.00 0.00 0.00 0.00 0.00 0.00 0.00 0.00 0.00 0.00 0.00 0.00 0.00
0.00 0.00 0.00 0.00 0.00 0.00 0.00 0.00 0.00 0.00 0.00 0.00 0.00 0.00 0.00 0.00 0.00 0.00 0.00 0.00 0.00 0.00 0.00 0.00 0.00 0.00 0.00 0.00 0.00 0.00 0.00 0.00 0.00 0.00 0.00 0.00 0.00 0.00 0.00 0.00 0.00 0.00 0.00 0.00
0.00 0.00 0.00 0.00 0.00 0.00 0.00 0.00 0.00 0.00 0.00 0.00 0.00 0.00 0.00 0.00 0.00 0.00 0.00 0.00 0.00 0.00 0.00 0.00 0.00 0.00 0.00 0.00 0.00 0.00 0.00 0.00 0.00 0.00 0.00 0.00 0.00 0.00 0.00 0.00 0.00 0.00 0.00 0.00
0.00 0.00 0.00 0.00 0.00 0.00 0.00 0.00 0.00 0.00 0.00 0.00 0.00 0.00 0.00 0.00 0.00 0.00 0.00 0.00 0.00 0.00 0.00 0.00 0.00 0.00 0.00 0.00 0.00 0.00 0.00 0.00 0.00 0.00 0.00 0.00 0.00 0.00 0.00 0.00 0.00 0.00 0.00 0.00
0.00 0.00 0.00 0.00 0.00 0.00 0.00 0.00 0.00 0.00 0.00 0.00 0.00 0.00 0.00 0.00 0.00 0.00 0.00 0.00 0.00 0.00 0.00 0.00 0.00 0.00 0.00 0.00 0.00 0.00 0.00 0.00 0.00 0.00 0.00 0.00 0.00 0.00 0.00 0.00 0.00 0.00 0.00 0.00
0.00 0.00 0.00 0.00 0.00 0.00 0.00 0.00 0.00 0.00 0.00 0.00 0.00 0.00 0.00 0.00 0.00 0.00 0.00 0.00 0.00 0.00 0.00 0.00 0.00 0.00 0.00 0.00 0.00 0.00 0.00 0.00 0.00 0.00 0.00 0.00 0.00 0.00 0.00 0.00 0.00 0.00 0.00 0.00
0.00 0.00 0.00 0.00 0.00 0.00 0.00 0.00 0.00 0.00 0.00 0.00 0.00 0.00 0.00 0.00 0.00 0.00 0.00 0.00 0.00 0.00 0.00 0.00 0.00 0.00 0.00 0.00 0.00 0.00 0.00 0.00 0.00 0.00 0.00 0.00 0.00 0.00 0.00 0.00 0.00 0.00 0.00 0.00
0.00 0.00 0.00 0.00 0.00 0.00 0.00 0.00 0.00 0.00 0.00 0.00 0.00 0.00 0.00 0.00 0.00 0.00 0.00 0.00 0.00 0.00 0.00 0.00 0.00 0.00 0.00 0.00 0.00 0.00 0.00 0.00 0.00 0.00 0.00 0.00 0.00 0.00 0.00 0.00 0.00 0.00 0.00 0.00
0.00 0.00 0.00 0.00 0.00 0.00 0.00 0.00 0.00 0.00 0.00 0.00 0.00 0.00 0.00 0.00 0.00 0.00 0.00 0.00 0.00 0.00 0.00 0.00 0.00 0.00 0.00 0.00 0.00 0.00 0.00 0.00 0.00 0.00 0.00 0.00 0.00 0.00 0.00 0.00 0.00 0.00 0.00 0.00
0.00 0.00 0.00 0.00 0.00 0.00 0.00 0.00 0.00 0.00 0.00 0.00 0.00 0.00 0.00 0.00 0.00 0.00 0.00 0.00 0.00 0.00 0.00 0.00 0.00 0.00 0.00 0.00 0.00 0.00 0.00 0.00 0.00 0.00 0.00 0.00 0.00 0.00 0.00 0.00 0.00 0.00 0.00 0.00
0.00 0.00 0.00 0.00 0.00 0.00 0.00 0.00 0.00 0.00 0.00 0.00 0.00 0.00 0.00 0.00 0.00 0.00 0.00 0.00 0.00 0.00 0.00 0.00 0.00 0.00 0.00 0.00 0.00 0.00 0.00 0.00 0.00 0.00 0.00 0.00 0.00 0.00 0.00 0.00 0.00 0.00 0.00 0.00
0.00 0.00 0.00 0.00 0.00 0.00 0.00 0.00 0.00 0.00 0.00 0.00 0.00 0.00 0.00 0.00 0.00 0.00 0.00 0.00 0.00 0.00 0.00 0.00 0.00 0.00 0.00 0.00 0.00 0.00 0.00 0.00 0.00 0.00 0.00 0.00 0.00 0.00 0.00 0.00 0.00 0.00 0.00 0.00
0.00 0.00 0.00 0.00 0.00 0.00 0.00 0.00 0.00 0.00 0.00 0.00 0.00 0.00 0.00 0.00 0.00 0.00 0.00 0.00 0.00 0.00 0.00 0.00 0.00 0.00 0.00 0.00 0.00 0.00 0.00 0.00 0.00 0.00 0.00 0.00 0.00 0.00 0.00 0.00 0.00 0.00 0.00 0.00
0.00 0.00 0.00 0.00 0.00 0.00 0.00 0.00 0.00 0.00 0.00 0.00 0.00 0.00 0.00 0.00 0.00 0.00 0.00 0.00 0.00 0.00 0.00 0.00 0.00 0.00 0.00 0.00 0.00 0.00 0.00 0.00 0.00 0.00 0.00 0.00 0.00 0.00 0.00 0.00 0.00 0.00 0.00 0.00
0.00 0.00 0.00 0.00 0.00 0.00 0.00 0.00 0.00 0.01 0.00 0.00 0.00 0.00 0.00 0.00 0.00 0.00 0.00 0.00 0.00 0.00 0.00 0.00 0.00 0.00 0.00 0.00 0.00 0.00 0.00 0.00 0.00 0.00 0.00 0.00 0.00 0.00 0.00 0.00 0.00 0.00 0.00 0.00
0.00 0.00 0.00 0.00 0.00 0.00 0.00 0.00 0.00 0.00 0.00 0.00 0.00 0.00 0.00 0.00 0.00 0.00 0.00 0.00 0.00 0.00 0.00 0.00 0.00 0.00 0.00 0.00 0.00 0.00 0.00 0.00 0.00 0.00 0.00 0.00 0.00 0.00 0.00 0.00 0.00 0.00 0.00 0.00
0.00 0.00 0.00 0.00 0.00 0.00 0.00 0.00 0.00 0.00 0.00 0.00 0.00 0.00 0.00 0.00 0.00 0.00 0.00 0.00 0.00 0.00 0.00 0.00 0.00 0.00 0.00 0.00 0.00 0.00 0.00 0.00 0.00 0.00 0.00 0.00 0.00 0.00 0.00 0.00 0.00 0.00 0.00 0.00
0.00 0.00 0.00 0.00 0.00 0.00 0.00 0.00 0.00 0.00 0.00 0.00 0.00 0.00 0.00 0.00 0.00 0.00 0.00 0.00 0.00 0.00 0.00 0.00 0.00 0.00 0.00 0.00 0.00 0.00 0.00 0.00 0.00 0.00 0.00 0.00 0.00 0.00 0.00 0.00 0.00 0.00 0.00 0.00
0.00 0.00 0.00 0.00 0.00 0.00 0.00 0.00 0.00 0.00 0.00 0.00 0.00 0.00 0.00 0.00 0.00 0.00 0.00 0.00 0.00 0.00 0.00 0.00 0.00 0.00 0.00 0.00 0.00 0.00 0.00 0.00 0.00 0.00 0.00 0.00 0.00 0.00 0.00 0.00 0.00 0.00 0.00 0.00
0.00 0.00 0.00 0.00 0.00 0.00 0.00 0.00 0.00 0.00 0.00 0.00 0.00 0.00 0.00 0.00 0.00 0.00 0.00 0.00 0.00 0.00 0.00 0.00 0.00 0.00 0.00 0.00 0.00 0.00 0.00 0.00 0.00 0.00 0.00 0.00 0.00 0.00 0.00 0.00 0.00 0.00 0.00 0.00
0.00 0.00 0.00 0.00 0.00 0.00 0.00 0.00 0.00 0.00 0.00 0.00 0.00 0.00 0.00 0.00 0.00 0.00 0.00 0.00 0.00 0.00 0.00 0.00 0.00 0.00 0.00 0.00 0.00 0.00 0.00 0.00 0.00 0.00 0.00 0.00 0.00 0.00 0.00 0.00 0.00 0.00 0.00 0.00
0.00 0.00 0.00 0.00 0.00 0.00 0.00 0.00 0.00 0.00 0.00 0.00 0.00 0.00 0.00 0.00 0.00 0.00 0.00 0.00 0.00 0.00 0.00 0.00 0.00 0.00 0.00 0.00 0.00 0.00 0.00 0.00 0.00 0.00 0.00 0.00 0.00 0.00 0.00 0.00 0.00 0.00 0.00 0.00
0.00 0.00 0.00 0.00 0.00 0.00 0.00 0.00 0.00 0.00 0.00 0.00 0.00 0.00 0.00 0.00 0.00 0.00 0.00 0.00 0.00 0.00 0.00 0.00 0.00 0.00 0.00 0.00 0.00 0.00 0.00 0.00 0.00 0.00 0.00 0.00 0.00 0.00 0.00 0.00 0.00 0.00 0.00 0.00
0.00 0.00 0.00 0.00 0.00 0.00 0.00 0.00 0.00 0.00 0.00 0.00 0.00 0.00 0.00 0.00 0.00 0.00 0.00 0.00 0.00 0.00 0.00 0.00 0.00 0.00 0.00 0.00 0.00 0.00 0.00 0.00 0.00 0.00 0.00 0.00 0.00 0.00 0.00 0.00 0.00 0.00 0.00 0.00
0.00 0.00 0.00 0.00 0.00 0.00 0.00 0.00 0.00 0.00 0.00 0.00 0.00 0.00 0.00 0.00 0.00 0.00 0.00 0.00 0.00 0.00 0.00 0.00 0.00 0.00 0.00 0.00 0.00 0.00 0.00 0.00 0.00 0.00 0.00 0.00 0.00 0.00 0.00 0.00 0.00 0.00 0.00 0.00
0.00 0.00 0.00 0.00 0.00 0.00 0.00 0.00 0.00 0.00 0.00 0.00 0.00 0.00 0.00 0.00 0.00 0.00 0.00 0.00 0.00 0.00 0.00 0.00 0.00 0.00 0.00 0.00 0.00 0.00 0.00 0.00 0.00 0.00 0.00 0.00 0.00 0.00 0.00 0.00 0.00 0.00 0.00 0.00
MSLP
1017.61 1017.23 1017.05 1017.35 1017.22 1017.90 1018.09 1018.35 1018.33 1018.46 1018.79 1018.37 1017.43 1016.71 1016.36 1016.89 1016.90 1016.57 1016.31 1016.29 1016.23 1016.05 1015.88 1016.14 1016.53 1016.90 1017.28 1017.62 1018.03 1018.38 1018.74 1018.95 1019.27 1019.56 1019.77 1019.88 1019.82 1020.13 1020.27 1020.47 1020.71 1020.63 1020.25 1020.13
1017.85 1017.10 1017.09 1017.19 1017.82 1018.07 1018.40 1018.61 1018.94 1019.29 1019.32 1018.83 1018.26 1017.17 1016.55 1016.76 1016.40 1016.32 1016.30 1016.11 1015.92 1015.78 1015.62 1016.00 1016.30 1016.53 1016.76 1017.06 1017.49 1017.95 1018.30 1018.61 1018.97 1019.09 1019.26 1019.44 1019.70 1020.10 1020.23 1020.64 1020.81 1020.77 1020.58 1020.12
1017.45 1018.02 1017.81 1017.69 1018.30 1018.67 1019.04 1018.63 1019.18 1019.53 1019.84 1019.77 1018.90 1017.12 1016.43 1015.93 1016.33 1016.28 1016.18 1015.89 1015.47 1015.16 1015.05 1015.09 1015.63 1016.04 1016.37 1016.77 1017.16 1017.58 1017.85 1018.32 1018.77 1019.14 1019.34 1019.63 1019.98 1020.20 1020.36 1020.55 1020.83 1020.97 1020.89 1020.63
1018.51 1018.87 1018.40 1018.44 1018.55 1018.72 1019.34 1019.44 1019.61 1020.14 1020.35 1019.99 1019.73 1016.93 1015.95 1015.89 1015.80 1015.87 1015.45 1015.25 1014.85 1015.03 1015.25 1015.33 1015.54 1015.78 1016.03 1016.41 1016.81 1017.39 1017.66 1018.21 1018.68 1019.13 1019.20 1019.08 1019.06 1019.19 1019.31 1019.97 1020.62 1020.92 1021.15 1021.02
1018.92 1019.14 1018.99 1019.18 1019.10 1019.25 1019.78 1020.07 1020.24 1020.69 1020.73 1020.78 1020.17 1019.06 1016.00 1016.22 1015.61 1015.21 1014.32 1014.27 1014.84 1015.17 1015.38 1015.20 1015.42 1015.72 1015.85 1016.16 1016.64 1017.09 1017.54 1018.03 1018.41 1018.71 1018.89 1018.89 1018.93 1019.08 1019.61 1020.12 1020.61 1021.01 1021.38 1021.48
1019.61 1019.75 1019.45 1019.33 1019.85 1019.80 1020.35 1020.61 1021.24 1021.58 1021.41 1020.84 1019.70 1019.18 1015.19 1015.20 1015.00 1014.28 1014.59 1014.76 1015.22 1015.52 1015.57 1015.57 1015.60 1016.01 1016.10 1016.41 1016.70 1016.94 1017.33 1017.58 1018.07 1018.37 1018.65 1018.70 1018.78 1019.12 1019.53 1020.03 1020.47 1020.97 1021.32 1021.52
1019.92 1019.98 1019.77 1019.68 1019.97 1020.59 1020.25 1020.20 1021.39 1022.10 1022.01 1020.35 1020.19 1019.44 1015.03 1015.24 1014.92 1014.81 1014.88 1015.37 1015.45 1015.58 1015.66 1015.61 1015.69 1015.93 1016.15 1016.61 1016.81 1016.90 1017.05 1017.39 1018.08 1018.44 1018.53 1018.59 1018.61 1018.84 1019.09 1019.63 1020.08 1020.67 1021.16 1021.51
1019.20 1020.19 1019.72 1019.71 1019.44 1019.58 1020.13 1019.72 1019.95 1020.52 1021.17 1020.41 1020.91 1018.27 1015.39 1015.48 1015.21 1015.14 1015.46 1015.73 1015.70 1015.63 1015.59 1015.62 1015.78 1016.03 1016.26 1016.57 1016.86 1017.14 1017.49 1017.75 1018.26 1018.53 1018.59 1018.69 1018.73 1018.81 1019.04 1019.43 1019.84 1020.25 1020.69 1021.15
1018.91 1019.27 1019.56 1019.66 1019.59 1019.54 1020.24 1020.17 1020.28 1020.87 1022.07 1021.11 1019.12 1017.47 1016.09 1015.49 1014.87 1014.73 1015.07 1015.41 1015.45 1015.53 1015.56 1015.62 1015.75 1016.04 1016.37 1016.66 1016.97 1017.14 1017.41 1017.75 1018.01 1018.21 1018.51 1018.67 1018.67 1018.82 1019.13 1019.51 1019.95 1020.42 1020.79 1021.15
1019.04 1019.33 1020.17 1020.01 1019.89 1019.90 1019.34 1019.64 1020.43 1020.79 1020.79 1020.03 1018.14 1017.12 1015.38 1015.10 1014.54 1014.57 1014.82 1015.00 1015.19 1015.44 1015.58 1015.67 1015.81 1016.11 1016.38 1016.60 1016.88 1017.18 1017.28 1017.41 1017.80 1018.22 1018.46 1018.62 1018.78 1019.02 1019.30 1019.67 1020.02 1020.48 1020.88 1021.25
1019.82 1019.70 1020.92 1020.52 1019.92 1019.46 1019.89 1019.68 1019.81 1019.85 1019.85 1018.96 1017.79 1015.65 1015.17 1014.76 1014.75 1014.77 1014.94 1015.05 1015.20 1015.17 1015.34 1015.57 1015.72 1016.02 1016.43 1016.76 1017.00 1017.28 1017.58 1017.74 1018.06 1018.38 1018.60 1018.85 1019.15 1019.42 1019.64 1019.79 1020.13 1020.55 1021.02 1021.32
1021.53 1021.13 1020.97 1020.61 1020.57 1020.37 1019.44 1019.26 1019.23 1018.99 1019.68 1019.29 1018.29 1015.51 1015.02 1015.13 1015.17 1015.19 1015.28 1015.49 1015.43 1015.36 1015.37 1015.44 1015.73 1016.00 1016.39 1016.57 1016.91 1017.02 1017.22 1017.43 1017.76 1018.26 1018.67 1018.94 1019.24 1019.61 1019.81 1019.92 1020.19 1020.56 1020.88 1021.22
1022.21 1021.76 1021.65 1021.65 1021.60 1020.90 1019.95 1019.49 1019.05 1019.08 1019.21 1018.20 1017.65 1015.26 1015.50 1015.59 1015.61 1015.59 1015.72 1015.61 1015.46 1015.44 1015.29 1015.42 1015.53 1015.68 1015.92 1016.22 1016.56 1016.89 1017.13 1017.22 1017.55 1018.05 1018.47 1018.79 1019.05 1019.24 1019.40 1019.72 1020.17 1020.63 1020.94 1021.15
1022.36 1022.54 1022.21 1021.72 1021.17 1020.58 1019.91 1019.35 1019.18 1019.01 1018.73 1017.15 1016.78 1015.10 1015.42 1015.70 1015.66 1015.77 1015.66 1015.52 1015.48 1015.33 1015.03 1014.98 1014.98 1014.90 1015.17 1015.61 1015.90 1016.20 1016.56 1017.01 1017.36 1017.66 1018.02 1018.27 1018.53 1018.88 1019.18 1019.59 1019.95 1020.36 1020.69 1020.93
1022.73 1022.80 1022.75 1022.51 1022.25 1021.44 1020.53 1019.65 1019.24 1018.88 1018.05 1017.80 1016.29 1015.70 1015.05 1015.44 1015.48 1015.43 1015.17 1015.20 1015.36 1014.97 1014.65 1014.50 1014.38 1014.29 1014.44 1014.73 1015.00 1015.45 1015.63 1016.18 1016.77 1017.04 1017.11 1017.31 1017.94 1018.45 1018.85 1019.34 1019.71 1020.07 1020.52 1020.80
1023.44 1023.14 1023.17 1022.85 1022.50 1021.70 1020.97 1019.93 1019.62 1019.05 1018.51 1018.03 1017.16 1016.21 1015.48 1015.42 1015.40 1015.38 1015.49 1015.41 1014.93 1014.41 1014.17 1013.88 1013.54 1013.55 1013.70 1013.85 1014.06 1014.47 1014.72 1015.03 1015.68 1016.12 1015.94 1016.38 1017.14 1017.85 1018.27 1018.86 1019.40 1019.75 1020.18 1020.51
1023.96 1023.70 1023.60 1023.37 1022.97 1021.98 1020.83 1019.18 1018.71 1018.32 1018.03 1017.76 1017.00 1015.60 1015.52 1014.90 1014.95 1014.95 1014.99 1015.08 1014.48 1014.06 1013.68 1013.38 1012.98 1012.68 1012.66 1012.90 1013.06 1013.38 1013.56 1014.18 1014.80 1015.26 1015.61 1015.72 1016.34 1016.82 1017.27 1017.97 1018.66 1019.09 1019.55 1020.04
1024.50 1024.52 1024.36 1024.28 1023.76 1022.31 1018.98 1018.54 1018.18 1018.02 1017.52 1017.49 1016.94 1016.22 1016.02 1015.74 1015.11 1015.04 1015.55 1015.08 1014.81 1014.57 1013.91 1013.32 1012.89 1012.46 1012.11 1012.20 1012.41 1012.49 1012.88 1013.49 1013.86 1014.25 1014.53 1014.78 1015.43 1015.93 1016.60 1017.26 1017.70 1018.21 1018.69 1019.16
1024.95 1024.76 1025.14 1025.14 1023.99 1021.79 1019.31 1018.99 1018.78 1018.54 1017.59 1017.58 1017.46 1017.45 1017.16 1016.84 1015.95 1014.95 1015.75 1016.36 1016.09 1015.47 1014.66 1013.79 1013.00 1012.44 1012.04 1012.22 1012.59 1012.64 1012.72 1013.01 1013.37 1013.60 1013.75 1014.06 1014.62 1015.21 1015.77 1016.22 1016.64 1017.29 1018.02 1018.64
1025.32 1025.27 1025.27 1025.69 1024.23 1022.00 1020.22 1019.72 1019.30 1019.02 1018.63 1018.45 1018.54 1018.35 1017.90 1017.34 1016.61 1015.35 1015.88 1016.49 1016.10 1015.45 1015.02 1014.45 1013.89 1013.62 1013.37 1012.96 1012.93 1012.72 1012.54 1012.71 1012.48 1012.57 1012.47 1013.08 1013.71 1014.28 1014.73 1015.24 1015.86 1016.50 1017.15 1017.66
1025.28 1025.39 1025.05 1024.91 1023.85 1021.62 1020.23 1019.85 1019.64 1019.86 1018.79 1018.83 1019.09 1019.23 1018.77 1018.26 1017.79 1016.44 1016.45 1016.34 1016.50 1015.76 1015.07 1014.86 1014.40 1014.07 1013.76 1013.61 1013.79 1013.35 1013.02 1012.34 1012.39 1012.64 1012.90 1013.24 1013.61 1014.07 1014.60 1015.26 1015.91 1016.55 1017.17 1017.78
1024.43 1024.52 1024.32 1024.58 1023.66 1021.88 1019.88 1020.18 1019.90 1019.35 1018.81 1019.03 1019.36 1019.25 1018.81 1018.20 1017.53 1017.37 1017.01 1016.93 1016.70 1016.70 1015.25 1015.01 1014.68 1013.96 1013.94 1013.98 1013.74 1013.66 1013.64 1013.47 1013.24 1013.11 1013.19 1013.42 1013.69 1014.03 1014.42 1015.12 1015.74 1016.48 1017.06 1017.75
1024.28 1023.30 1023.21 1023.10 1021.46 1020.22 1019.85 1019.49 1019.31 1019.70 1019.84 1019.65 1019.63 1019.55 1019.37 1018.86 1018.27 1017.82 1017.46 1017.10 1016.78 1016.63 1016.35 1015.78 1015.29 1014.65 1013.57 1013.60 1014.06 1013.60 1013.16 1013.43 1013.59 1013.64 1013.61 1013.82 1014.22 1014.44 1014.54 1015.09 1015.61 1016.28 1016.81 1017.04
1023.23 1022.92 1022.53 1022.14 1020.32 1019.73 1019.35 1019.48 1019.63 1019.78 1019.96 1019.85 1020.06 1019.96 1019.65 1019.25 1018.68 1018.37 1018.03 1017.63 1017.41 1017.19 1016.91 1016.47 1015.82 1014.88 1014.18 1014.22 1013.72 1013.76 1013.70 1013.73 1013.62 1013.91 1013.86 1013.92 1014.23 1014.45 1014.49 1014.65 1015.07 1015.33 1015.66 1016.05
1022.66 1022.57 1021.89 1021.21 1020.28 1019.72 1019.34 1019.29 1019.59 1020.04 1020.29 1020.32 1020.15 1020.08 1019.86 1019.66 1019.15 1018.94 1018.47 1018.05 1017.79 1017.50 1017.16 1016.87 1016.53 1015.88 1014.81 1014.40 1014.01 1014.05 1014.15 1014.00 1013.72 1014.11 1014.02 1014.03 1014.35 1014.40 1014.36 1014.44 1014.40 1014.66 1014.97 1015.08
1021.72 1020.87 1020.99 1019.75 1019.07 1019.44 1019.54 1019.79 1020.26 1020.36 1020.30 1020.44 1020.53 1020.33 1020.16 1020.48 1020.10 1019.72 1019.05 1018.68 1018.47 1017.94 1017.51 1017.09 1016.61 1015.98 1015.19 1014.74 1014.27 1014.10 1014.16 1014.36 1014.19 1013.82 1013.90 1014.12 1014.17 1014.21 1014.13 1014.31 1014.58 1014.89 1015.27 1014.85
Thickness
5586 5599 5604 5608 5616 5614 5616 5612 5623 5625 5621 5631 5644 5652 5665 5662 5662 5668 5676 5680 5683 5690 5699 5699 5698 5697 5694 5693 5689 5687 5685 5682 5679 5676 5674 5673 5673 5672 5670 5667 5665 5665 5667 5667
5579 5592 5602 5605 5599 5599 5604 5607 5608 5608 5611 5621 5625 5639 5655 5654 5662 5668 5670 5675 5680 5686 5692 5690 5690 5691 5691 5691 5688 5685 5681 5679 5675 5674 5671 5670 5667 5663 5661 5657 5655 5655 5655 5658
5580 5578 5584 5592 5588 5588 5587 5602 5598 5604 5598 5602 5614 5634 5644 5658 5652 5658 5661 5670 5678 5685 5688 5691 5687 5685 5687 5685 5683 5680 5678 5673 5669 5664 5661 5658 5655 5654 5651 5649 5646 5643 5642 5643
5561 5563 5574 5578 5581 5588 5577 5587 5592 5587 5593 5600 5597 5618 5642 5645 5647 5649 5659 5666 5674 5675 5676 5679 5680 5680 5679 5678 5677 5673 5671 5665 5661 5655 5653 5653 5655 5652 5651 5645 5637 5632 5629 5629
5553 5554 5560 5562 5573 5577 5577 5576 5581 5578 5581 5579 5587 5590 5632 5621 5637 5650 5667 5670 5665 5665 5666 5671 5671 5670 5671 5671 5668 5664 5661 5656 5652 5647 5645 5645 5643 5642 5636 5631 5625 5621 5616 5614
5533 5541 5553 5560 5557 5565 5563 5563 5558 5558 5564 5561 5588 5585 5637 5635 5643 5658 5652 5652 5650 5652 5654 5656 5659 5657 5657 5656 5653 5653 5650 5647 5642 5639 5636 5635 5633 5629 5625 5618 5613 5608 5604 5601
5525 5531 5539 5547 5547 5546 5556 5565 5544 5541 5541 5567 5563 5570 5638 5633 5634 5639 5642 5637 5639 5641 5642 5646 5648 5649 5648 5642 5641 5640 5639 5637 5630 5626 5625 5624 5623 5620 5616 5610 5605 5598 5592 5588
5524 5520 5531 5540 5548 5548 5548 5560 5558 5550 5554 5574 5542 5574 5625 5621 5625 5625 5621 5622 5624 5630 5634 5635 5636 5636 5635 5631 5629 5627 5623 5622 5616 5614 5612 5609 5609 5607 5605 5600 5595 5590 5584 5579
5521 5524 5526 5532 5537 5543 5536 5539 5550 5533 5492 5537 5566 5585 5605 5609 5617 5621 5617 5614 5620 5623 5624 5625 5625 5623 5620 5617 5614 5613 5611 5607 5604 5601 5598 5596 5596 5593 5589 5584 5580 5574 5569 5565
5520 5520 5513 5522 5528 5531 5541 5546 5530 5528 5530 5537 5565 5567 5599 5606 5611 5612 5609 5608 5608 5610 5611 5612 5612 5609 5607 5605 5604 5600 5599 5597 5592 5588 5585 5583 5580 5577 5574 5570 5566 5560 5555 5550
5511 5518 5504 5514 5524 5532 5527 5530 5532 5539 5537 5546 5555 5586 5594 5597 5597 5598 5596 5596 5600 5602 5601 5601 5600 5596 5593 5590 5588 5586 5583 5581 5577 5573 5570 5567 5563 5559 5556 5554 5550 5545 5540 5536
5477 5491 5504 5512 5510 5513 5531 5533 5534 5536 5519 5529 5534 5573 5583 5584 5584 5584 5585 5581 5585 5583 5584 5584 5583 5582 5580 5577 5574 5573 5571 5569 5565 5560 5554 5550 5547 5542 5540 5538 5535 5530 5527 5522
5464 5483 5496 5493 5496 5503 5516 5525 5535 5530 5524 5532 5536 5576 5567 5567 5567 5569 5566 5567 5569 5566 5569 5567 5568 5568 5566 5564 5561 5558 5555 5553 5550 5545 5540 5536 5532 5530 5527 5524 5518 5513 5510 5507
5466 5466 5476 5502 5502 5507 5513 5519 5523 5524 5520 5544 5539 5571 5561 5555 5557 5557 5557 5558 5557 5554 5557 5557 5555 5558 5558 5555 5554 5551 5547 5541 5537 5533 5528 5525 5523 5519 5515 5511 5507 5502 5498 5496
5463 5464 5463 5463 5465 5479 5495 5509 5512 5513 5529 5517 5548 5544 5562 5555 5551 5552 5555 5552 5540 5545 5551 5553 5551 5552 5553 5550 5547 5542 5540 5534 5527 5524 5522 5520 5515 5510 5506 5501 5496 5491 5486 5482
5443 5456 5458 5458 5469 5469 5473 5493 5494 5499 5508 5509 5521 5523 5551 5547 5542 5539 5536 5532 5533 5542 5542 5542 5545 5544 5543 5543 5540 5536 5534 5531 5524 5521 5521 5515 5508 5501 5497 5490 5484 5480 5475 5472
5432 5441 5441 5458 5452 5464 5473 5496 5500 5505 5506 5506 5507 5533 5537 5540 5532 5530 5523 5522 5530 5532 5535 5536 5539 5540 5541 5538 5537 5535 5533 5525 5517 5514 5509 5506 5499 5495 5491 5484 5477 5472 5467 5462
5418 5422 5425 5431 5426 5456 5504 5496 5498 5500 5507 5504 5507 5518 5519 5518 5525 5525 5512 5514 5517 5518 5524 5526 5527 5530 5533 5531 5529 5527 5522 5515 5513 5508 5504 5499 5492 5488 5482 5475 5472 5466 5461 5455
5415 5418 5402 5418 5424 5452 5496 5481 5482 5483 5503 5493 5494 5494 5496 5495 5504 5523 5504 5493 5494 5499 5506 5511 5516 5519 5522 5518 5509 5507 5507 5504 5500 5497 5494 5490 5483 5479 5474 5470 5466 5459 5451 5444
5396 5405 5405 5383 5413 5438 5472 5464 5469 5477 5479 5477 5472 5473 5478 5481 5481 5508 5496 5478 5479 5483 5484 5485 5487 5490 5491 5494 5490 5490 5494 5490 5493 5492 5490 5482 5476 5471 5466 5461 5455 5448 5442 5437
5384 5387 5392 5391 5406 5433 5452 5455 5457 5449 5484 5463 5458 5454 5457 5457 5462 5478 5468 5466 5457 5463 5467 5464 5466 5468 5467 5467 5463 5468 5471 5478 5476 5469 5466 5463 5459 5454 5449 5442 5437 5431 5424 5418
5388 5381 5390 5386 5395 5408 5447 5441 5454 5463 5461 5453 5444 5440 5440 5443 5445 5440 5443 5439 5438 5434 5446 5442 5443 5451 5448 5444 5445 5447 5449 5446 5446 5447 5446 5443 5440 5436 5432 5425 5419 5411 5405 5398
5381 5399 5404 5402 5416 5433 5437 5444 5447 5443 5434 5428 5425 5423 5421 5419 5421 5420 5417 5415 5415 5411 5409 5410 5413 5420 5431 5427 5423 5429 5433 5427 5424 5424 5424 5421 5417 5415 5413 5407 5401 5393 5388 5385
5388 5389 5397 5398 5424 5428 5433 5433 5431 5434 5426 5424 5415 5411 5410 5409 5410 5405 5403 5401 5397 5392 5388 5384 5385 5396 5406 5399 5403 5405 5406 5405 5405 5403 5402 5400 5398 5395 5392 5389 5383 5380 5377 5372
5403 5394 5395 5403 5418 5427 5431 5432 5429 5424 5416 5410 5408 5403 5402 5398 5398 5393 5391 5388 5384 5380 5374 5367 5365 5371 5382 5382 5385 5383 5381 5381 5384 5380 5379 5379 5375 5372 5370 5367 5366 5363 5360 5357
5404 5415 5412 5423 5436 5433 5432 5423 5416 5414 5413 5406 5396 5396 5390 5378 5378 5375 5374 5372 5367 5365 5362 5359 5358 5358 5363 5364 5365 5363 5359 5356 5358 5360 5359 5355 5352 5349 5349 5345 5341 5338 5335 5337